Miscellaneous Local Product
Issued by NWS Hastings, NE

Home | Current Version | Previous Version | Graphics & Text | Print | Product List | Glossary Off
Versions: 1 2 3 4 5 6 7 8 9 10 11 12 13 14 15 16 17 18 19 20 21 22 23 24 25 26 27 28 29 30 31 32 33 34 35 36 37 38 39 40 41 42 43 44 45 46 47 48 49 50

000
AXUS43 KGID 210002
MISGRI

GID CWA HOURLY WEATHER ROUNDUP
NATIONAL WEATHER SERVICE HASTINGS NE
700 PM CDT WED AUG 20 2014

NOTE: "FAIR" INDICATES FEW OR NO CLOUDS BELOW 12,000 FEET WITH NO
SIGNIFICANT WEATHER AND/OR OBSTRUCTIONS TO VISIBILITY.

...SOUTH CENTRAL NEBRASKA...

CITY           SKY/WX    TMP DP  RH WIND       PRES   REMARKS
GRAND ISLAND   MOSUNNY   88  73  61 SE14      29.75S HX  95
HASTINGS       MOSUNNY   90  67  46 S10       29.74S HX  93
KEARNEY        MOSUNNY   88  73  62 SE10      29.74S HX  96
ORD            SUNNY     88  71  57 SE12      29.71F HX  94
YORK           PTSUNNY   88 N/A N/A S9        29.76S
AURORA         MOSUNNY   89  74  61 SE9       29.75S HX  97
LEXINGTON      MOSUNNY   88  70  54 SE10      29.73S HX  93
HOLDREGE       MOSUNNY   90  69  49 SE6       29.73F HX  94
HEBRON         PTSUNNY   88  67  49 S9        29.75S HX  90

...NEBRASKA PANHANDLE...

CITY           SKY/WX    TMP DP  RH WIND       PRES   REMARKS
CHADRON        SUNNY     92  46  20 W16G23    29.73S
ALLIANCE       SUNNY     91  43  18 W16       29.80R
SCOTTSBLUFF    MOSUNNY   91  48  22 W10       29.81S
SIDNEY         CLOUDY    84  54  35 S10       29.87F

...WESTERN AND NORTH CENTRAL NEBRASKA...

CITY           SKY/WX    TMP DP  RH WIND       PRES   REMARKS
VALENTINE      SUNNY     89  64  43 SE15      29.70F HX  90
AINSWORTH      SUNNY     85  67  55 S9        29.74S
ONEILL         MOSUNNY   86  75  70 SE9       29.72F HX  95
BROKEN BOW     SUNNY     90  70  51 SE15G22   29.73S HX  95
IMPERIAL       SUNNY     88  56  33 NW3       29.79R
NORTH PLATTE   SUNNY     88  67  49 NW7       29.73S HX  91
MCCOOK         PTSUNNY   91  61  36 SW6       29.73R HX  91

...EASTERN NEBRASKA...

CITY           SKY/WX    TMP DP  RH WIND       PRES   REMARKS
NORFOLK        MOSUNNY   87  70  56 S12       29.75S HX  92
SO SIOUX CITY  CLOUDY    83  75  77 SE10      29.75S HX  90
TEKAMAH        MOSUNNY   87  76  69 SE17G24   29.75F HX  97
COLUMBUS       SUNNY     88  72  58 S9        29.76S HX  94
ALBION         MOSUNNY   86  72  62 S13       29.74F HX  92
OMAHA EPPLEY   MOSUNNY   88  73  61 SE21      29.77F HX  95
OFFUTT AFB     SUNNY     87  78  75 SE14      29.77F HX  99
MILLARD        SUNNY     88  74  62 SE16      29.76S HX  97
LINCOLN        MOSUNNY   91  68  46 S15       29.76S HX  95
NEBRASKA CITY  SUNNY     85  73  66 SE12      29.79S HX  91
BEATRICE       SUNNY     91  70  50 S10       29.76F HX  96
FALLS CITY     MOSUNNY   88  77  69 SE10      29.78F HX 100

...NORTHERN KANSAS...

CITY           SKY/WX    TMP DP  RH WIND       PRES   REMARKS
GOODLAND       PTSUNNY   87  60  40 NE8       29.79S
HILL CITY      PTSUNNY   95  62  33 S13G23    29.71S HX  96
NORTON         CLEAR     91  55  29 SE7       29.71S
PHILLIPSBURG   SUNNY     93  63  36 SE10      29.71F HAZE    HX  94
SMITH CENTER   SUNNY     91  64  40 SE15      29.73F HX  93
BELOIT         SUNNY     90  66  45 SE10      29.72F HX  92
HAYS           PTSUNNY   93  63  36 S20G25    29.73F HX  94
RUSSELL        MOSUNNY   94  63  35 S20G29    29.73F HX  95
CONCORDIA      PTSUNNY   90  70  51 S14       29.75F HX  95
SALINA         MOSUNNY   93  69  45 S18       29.76S HX  98
TOPEKA         SUNNY     93  70  46 S14G21    29.80S HX  99



USA.gov is the U.S. government's official web portal to all federal, state and local government web resources and services.